Tracking 19827 objects as of 22-Aug-2019
HD Live streaming from Space Station
objects crossing your sky now

FENGYUN 1C DEB

Track FENGYUN 1C DEB now!
10-day predictions


NORAD ID: 31622
Int'l Code: 1999-025CAC
Perigee: 822.8 km
Apogee: 855.5 km
Inclination: 98.9 °
Period: 101.5 minutes
Semi major axis: 7210 km
RCS: 0.0179 m2 (small)
Launch date: May 10, 1999
Source: People's Republic of China (PRC)
Launch site: Taiyaun Space Center, China (TSC)

Note: This is SATELLITE DEBRIS
aabbcc
Your satellite tracking list
Your tracking list is empty




NASA's NSSDC Master Catalog

Two Line Element Set (TLE):
1 31622U 99025CAC 19232.63033910  .00000382  00000-0  20806-3 0  9993
2 31622  98.9495 276.9778 0022701 151.2349 337.8848 14.18041300630139
Source of the keplerian elements: AFSPC